Погода в Кысыл-Сыре

Россия / Республика Саха (Якутия)     63°53′43″N   122°45′30″E
темп.,
°C
ветер,
м/с
пор.,
м/с
влажн.,
%
обл.,
%
осадки,
мм/ч
давл.,
гПа
погр.,
м
27 февраля, сб
сб2700:00−32в3697100 0.0 1030183
03:00−31в3797100 0.0 1029217
06:00−33в389781 0.0 1029184
09:00−34в399880 0.0 1028192
12:00−30в369699 0.0 1027285
15:00−28всв3695100 0.0 1025311
18:00−28всв2696100 0.0 1025253
21:00−28всв3697100 0.0 1024316
28 февраля, вс
вс2800:00−28ссв2499100 0.6 1023214
03:00−29с2398100 0.8 1022149
06:00−29ссз2498100 0.3 1023169
09:00−29зсз2597100 0.4 1023235
12:00−27з4795100 0.1 1024425
15:00−26зсз4894100 0.3 1025526
18:00−27зсз3895100 0.1 1027592
21:00−27з4995100 0.2 1028533
1 марта, пн
пн100:00−28зсз3895100 0.1 1028393
03:00−29з3894100 0.1 1028353
06:00−30з3793100 0.0 1028314
09:00−31з3893100 0.0 1028340
12:00−30з3693100 0.0 1028361
15:00−29з3692100 0.0 1028396
18:00−30з2695100 0.0 1028205
21:00−33з239699 0.0 102853
2 марта, вт
вт200:00−35зсз229576 0.0 102831
03:00−34зсз129486 0.0 102732
06:00−35зсз2293100 0.0 102719
09:00−36зсз229489 0.0 102734
12:00−32зсз129199 0.0 1027284
15:00−29зсз118899 0.0 1027353
18:00−32сз1295100 0.0 102719
21:00−33с1297100 0.0 102719
3 марта, ср
ср300:00−34ссз1198100 0.0 102719
03:00−34с1298100 0.1 102719
06:00−35ссз1297100 0.0 102719
09:00−33сз1398100 0.1 1027130
12:00−30сз2394100 0.1 1026381
15:00−29сз2393100 0.2 1025493
18:00−30сз2597100 0.1 1024370
21:00−31сз2697100 0.3 1023430